SWA1547 KLAS-KSAN

Flight info

Callsign SWA1547
Flight time N/A
Altitude 34000
Route RADYR2 LVELL LUCKI1
Aircraft B737/M-SDE2E3FGHIRWXY/LB1

Departure

Time N/A
Airport Harry Reid International Airport (KLAS)

Arrival

Time 2026-04-24 19:34
Airport San Diego International Airport (KSAN)
Time Latitude Longitude Altitude Speed Heading
2026-04-24 18:54 35.60412 -115.38699 22062 ft 382 kts 192°
2026-04-24 18:55 35.54977 -115.38517 23567 ft 397 kts 183°
2026-04-24 18:55 35.52244 -115.38283 24143 ft 401 kts 183°
2026-04-24 18:55 35.49453 -115.38041 24737 ft 404 kts 184°
2026-04-24 18:56 35.46635 -115.37809 25329 ft 407 kts 185°
2026-04-24 18:56 35.43797 -115.37589 25906 ft 410 kts 185°
2026-04-24 18:56 35.40938 -115.37378 26463 ft 413 kts 185°
2026-04-24 18:56 35.38053 -115.37171 26973 ft 417 kts 186°
2026-04-24 18:57 35.35144 -115.36965 27503 ft 420 kts 186°
2026-04-24 18:57 35.32212 -115.36758 28035 ft 424 kts 186°
2026-04-24 18:57 35.29253 -115.36549 28551 ft 427 kts 187°
2026-04-24 18:57 35.26280 -115.36339 29049 ft 430 kts 187°
2026-04-24 18:58 35.23279 -115.36127 29529 ft 434 kts 187°
2026-04-24 18:58 35.20256 -115.35912 30019 ft 436 kts 187°
2026-04-24 18:58 35.17236 -115.35695 30555 ft 434 kts 187°
2026-04-24 18:58 35.14235 -115.35480 31177 ft 430 kts 187°
2026-04-24 18:59 35.11255 -115.35268 31783 ft 427 kts 187°
2026-04-24 18:59 35.08303 -115.35060 32340 ft 424 kts 187°
2026-04-24 18:59 35.05364 -115.34855 32869 ft 422 kts 187°
2026-04-24 18:59 35.02432 -115.34653 33418 ft 420 kts 187°
2026-04-24 19:00 34.99517 -115.34451 33902 ft 420 kts 188°
2026-04-24 19:00 34.93691 -115.34049 33889 ft 418 kts 187°
2026-04-24 19:01 34.87909 -115.33651 33908 ft 420 kts 187°
2026-04-24 19:01 34.82054 -115.33246 33905 ft 423 kts 187°
2026-04-24 19:02 34.77220 -115.33426 33887 ft 402 kts 204°
2026-04-24 19:02 34.71183 -115.36003 33857 ft 395 kts 209°
2026-04-24 19:03 34.66031 -115.38340 33866 ft 396 kts 209°
2026-04-24 19:03 34.60839 -115.40643 33887 ft 398 kts 208°
2026-04-24 19:04 34.55630 -115.42924 33877 ft 399 kts 208°
2026-04-24 19:04 34.50408 -115.45200 33879 ft 399 kts 208°
2026-04-24 19:05 34.45182 -115.47476 33846 ft 399 kts 208°
2026-04-24 19:05 34.39963 -115.49747 33874 ft 399 kts 208°
2026-04-24 19:06 34.34741 -115.52016 33876 ft 399 kts 208°
2026-04-24 19:06 34.29811 -115.54828 33900 ft 386 kts 219°
2026-04-24 19:07 34.25276 -115.58329 33889 ft 387 kts 219°
2026-04-24 19:07 34.21454 -115.61170 33878 ft 389 kts 218°
2026-04-24 19:08 34.15585 -115.64220 33879 ft 398 kts 209°
2026-04-24 19:08 34.10394 -115.66555 33889 ft 398 kts 210°
2026-04-24 19:09 34.05230 -115.68946 33900 ft 397 kts 210°
2026-04-24 19:09 34.00081 -115.71369 33908 ft 397 kts 210°
2026-04-24 19:10 33.94931 -115.73797 33902 ft 397 kts 210°
2026-04-24 19:10 33.89793 -115.76237 33890 ft 396 kts 211°
2026-04-24 19:11 33.84695 -115.78753 33892 ft 396 kts 211°
2026-04-24 19:11 33.82142 -115.80012 33766 ft 397 kts 211°
2026-04-24 19:11 33.79566 -115.81279 33054 ft 400 kts 211°
2026-04-24 19:11 33.76994 -115.82535 32291 ft 399 kts 210°
2026-04-24 19:12 33.74414 -115.83765 31485 ft 399 kts 210°
2026-04-24 19:12 33.71834 -115.84969 30884 ft 396 kts 209°
2026-04-24 19:12 33.69272 -115.86156 30280 ft 393 kts 209°
2026-04-24 19:12 33.66738 -115.87334 29648 ft 389 kts 209°
2026-04-24 19:13 33.65068 -115.88112 29173 ft 387 kts 209°
2026-04-24 19:13 33.61739 -115.89665 28374 ft 380 kts 209°
2026-04-24 19:13 33.59289 -115.90810 27777 ft 376 kts 209°
2026-04-24 19:13 33.56865 -115.91942 27175 ft 372 kts 209°
2026-04-24 19:14 33.54460 -115.93064 26582 ft 369 kts 209°
2026-04-24 19:14 33.52208 -115.94410 25982 ft 356 kts 222°
2026-04-24 19:14 33.50401 -115.96334 25563 ft 342 kts 234°
2026-04-24 19:14 33.48978 -115.98593 25177 ft 342 kts 239°
2026-04-24 19:15 33.47616 -116.00973 24765 ft 350 kts 239°
2026-04-24 19:15 33.46248 -116.03400 24315 ft 352 kts 239°
2026-04-24 19:15 33.44879 -116.05813 23880 ft 349 kts 239°
2026-04-24 19:15 33.43512 -116.08199 23463 ft 346 kts 239°
2026-04-24 19:16 33.40808 -116.12873 22546 ft 341 kts 239°
2026-04-24 19:16 33.39460 -116.15194 22125 ft 339 kts 239°
2026-04-24 19:16 33.38119 -116.17499 21685 ft 336 kts 239°
2026-04-24 19:17 33.36792 -116.19777 21328 ft 332 kts 239°
2026-04-24 19:17 33.35470 -116.22046 20929 ft 333 kts 238°
2026-04-24 19:17 33.34052 -116.24246 20497 ft 338 kts 230°
2026-04-24 19:17 33.32181 -116.25986 20093 ft 346 kts 216°
2026-04-24 19:18 33.30042 -116.27330 19697 ft 348 kts 212°
2026-04-24 19:18 33.27862 -116.28584 19280 ft 349 kts 211°
2026-04-24 19:18 33.25670 -116.29823 18871 ft 349 kts 211°
2026-04-24 19:18 33.23477 -116.31070 18443 ft 349 kts 211°
2026-04-24 19:19 33.21299 -116.32320 17993 ft 346 kts 211°
2026-04-24 19:19 33.19146 -116.33565 17534 ft 341 kts 211°
2026-04-24 19:19 33.17028 -116.34797 17082 ft 336 kts 211°
2026-04-24 19:19 33.14937 -116.36017 16668 ft 333 kts 211°
2026-04-24 19:20 33.12859 -116.37232 16265 ft 331 kts 211°
2026-04-24 19:20 33.10796 -116.38438 15892 ft 330 kts 211°
2026-04-24 19:20 33.08737 -116.39641 15490 ft 329 kts 211°
2026-04-24 19:20 33.06688 -116.40839 15112 ft 328 kts 210°
2026-04-24 19:21 33.04637 -116.42037 14710 ft 329 kts 210°
2026-04-24 19:21 33.02580 -116.43236 14306 ft 329 kts 210°
2026-04-24 19:21 33.00552 -116.44453 13904 ft 322 kts 214°
2026-04-24 19:21 32.98783 -116.46017 13501 ft 313 kts 223°
2026-04-24 19:22 32.97696 -116.47131 13213 ft 309 kts 223°
2026-04-24 19:22 32.95541 -116.49385 12691 ft 308 kts 224°
2026-04-24 19:22 32.93925 -116.51061 12338 ft 309 kts 223°
2026-04-24 19:22 32.92298 -116.52730 11942 ft 309 kts 223°
2026-04-24 19:23 32.90670 -116.54387 11557 ft 307 kts 222°
2026-04-24 19:23 32.89048 -116.56028 11176 ft 306 kts 222°
2026-04-24 19:23 32.87446 -116.57642 10812 ft 304 kts 222°
2026-04-24 19:23 32.85843 -116.59256 10434 ft 299 kts 221°
2026-04-24 19:24 32.84245 -116.60863 10066 ft 295 kts 221°
2026-04-24 19:24 32.82725 -116.62395 9874 ft 281 kts 221°
2026-04-24 19:24 32.81277 -116.63851 9800 ft 262 kts 221°
2026-04-24 19:24 32.79907 -116.65230 9446 ft 262 kts 221°
2026-04-24 19:25 32.78500 -116.66647 9110 ft 268 kts 221°
2026-04-24 19:25 32.77171 -116.68187 8733 ft 266 kts 236°
2026-04-24 19:25 32.76244 -116.70076 8390 ft 264 kts 242°
2026-04-24 19:25 32.75366 -116.71987 7996 ft 264 kts 242°
2026-04-24 19:26 32.74480 -116.73894 7617 ft 264 kts 242°
2026-04-24 19:26 32.73585 -116.75800 7215 ft 263 kts 242°
2026-04-24 19:26 32.72696 -116.77687 6855 ft 260 kts 242°
2026-04-24 19:26 32.71818 -116.79544 6504 ft 255 kts 242°
2026-04-24 19:27 32.70958 -116.81360 6131 ft 250 kts 242°
2026-04-24 19:27 32.70237 -116.83206 5738 ft 244 kts 250°
2026-04-24 19:27 32.69668 -116.85076 5397 ft 239 kts 251°
2026-04-24 19:27 32.69114 -116.86917 5070 ft 235 kts 251°
2026-04-24 19:28 32.68577 -116.88722 4768 ft 228 kts 252°
2026-04-24 19:28 32.68069 -116.90470 4466 ft 223 kts 252°
2026-04-24 19:28 32.67564 -116.92201 4154 ft 218 kts 251°
2026-04-24 19:28 32.67366 -116.93922 3988 ft 209 kts 282°
2026-04-24 19:29 32.68133 -116.97199 3994 ft 208 kts 284°
2026-04-24 19:29 32.68515 -116.98879 3814 ft 216 kts 285°
2026-04-24 19:29 32.68921 -117.00591 3487 ft 211 kts 284°
2026-04-24 19:30 32.69307 -117.02200 3178 ft 196 kts 283°
2026-04-24 19:30 32.69673 -117.03714 2873 ft 186 kts 283°
2026-04-24 19:30 32.70027 -117.05184 2606 ft 183 kts 282°
2026-04-24 19:30 32.70364 -117.06577 2353 ft 166 kts 281°
2026-04-24 19:31 32.70668 -117.07837 2083 ft 150 kts 282°
2026-04-24 19:31 32.70942 -117.08975 1847 ft 137 kts 281°
2026-04-24 19:31 32.71197 -117.10030 1646 ft 133 kts 282°
2026-04-24 19:31 32.71451 -117.11088 1454 ft 132 kts 283°
2026-04-24 19:32 32.71698 -117.12118 1239 ft 127 kts 282°
2026-04-24 19:32 32.71937 -117.13105 1053 ft 126 kts 282°
2026-04-24 19:32 32.72176 -117.14124 885 ft 129 kts 284°
2026-04-24 19:32 32.72427 -117.15138 697 ft 127 kts 284°
2026-04-24 19:33 32.72672 -117.16124 475 ft 122 kts 281°
2026-04-24 19:33 32.72893 -117.17088 248 ft 121 kts 283°
2026-04-24 19:33 32.73134 -117.18041 63 ft 121 kts 282°
2026-04-24 19:33 32.73360 -117.18980 22 ft 108 kts 286°
2026-04-24 19:34 32.73505 -117.19584 27 ft 44 kts 286°
2026-04-24 19:34 32.73532 -117.19720 24 ft 3 kts 273°
2026-04-24 19:34 32.73514 -117.19819 26 ft 18 kts 241°
2026-04-24 19:34 32.73449 -117.19774 22 ft 13 kts 105°
2026-04-24 19:35 32.73430 -117.19692 23 ft 9 kts 105°
2026-04-24 19:35 32.73412 -117.19618 23 ft 9 kts 107°
2026-04-24 19:35 32.73393 -117.19547 22 ft 6 kts 107°
2026-04-24 19:35 32.73369 -117.19517 22 ft 5 kts 169°
2026-04-24 19:36 32.73338 -117.19539 22 ft 5 kts 228°
2026-04-24 19:36 32.73316 -117.19567 22 ft 3 kts 227°
2026-04-24 19:36 32.73312 -117.19572 24 ft 0 kts 227°